This is the latest recevied weather packets stored in our database for station/object WA1TYB-13. If no packets are shown the sender has not sent any weather packets the latest 10 day(s).
| Time | Temp. | Humidity | Pressure | Rain* | Wind** | Luminosity | Snow |
|---|---|---|---|---|---|---|---|
| 1778292001 | 18.89° C | 30% | 1012.7 hPa | 0 mm | - | 17 W/m² | - |
| 1778291700 | 18.89° C | 30% | 1013 hPa | 0 mm | - | 23 W/m² | - |
| 1778291396 | 18.89° C | 29% | 1012.7 hPa | 0 mm | - | 26 W/m² | - |
| 1778291093 | 19.44° C | 28% | 1012.5 hPa | 0 mm | - | 24 W/m² | - |
| 1778290789 | 19.44° C | 28% | 1012.4 hPa | 0 mm | - | 23 W/m² | - |
| 1778290486 | 19.44° C | 28% | 1012.5 hPa | 0 mm | - | 24 W/m² | - |
| 1778290182 | 19.44° C | 28% | 1012.3 hPa | 0 mm | - | 26 W/m² | - |
| 1778289879 | 19.44° C | 27% | 1012.7 hPa | 0 mm | - | 30 W/m² | - |
| 1778289575 | 19.44° C | 28% | 1012.5 hPa | 0 mm | - | 35 W/m² | - |
| 1778289273 | 19.44° C | 28% | 1012.5 hPa | 0 mm | - | 41 W/m² | - |
| 1778288971 | 19.44° C | 26% | 1012.3 hPa | 0 mm | - | 48 W/m² | - |
| 1778288668 | 20° C | 25% | 1012.5 hPa | 0 mm | - | 58 W/m² | - |
| 1778288365 | 20° C | 25% | 1012.6 hPa | 0 mm | - | 67 W/m² | - |
| 1778288063 | 20.56° C | 25% | 1012.3 hPa | 0 mm | - | 76 W/m² | - |
| 1778287763 | 20.56° C | 25% | 1012.3 hPa | 0 mm | - | 81 W/m² | - |
| 1778287460 | 20.56° C | 25% | 1012.4 hPa | 0 mm | - | 81 W/m² | - |
| 1778287158 | 20.56° C | 24% | 1012.4 hPa | 0 mm | - | 80 W/m² | - |
| 1778286855 | 20.56° C | 25% | 1012.3 hPa | 0 mm | - | 84 W/m² | - |
| 1778286552 | 20.56° C | 25% | 1012.4 hPa | 0 mm | - | 99 W/m² | - |
| 1778286250 | 20.56° C | 25% | 1012.2 hPa | 0 mm | - | 117 W/m² | - |
| 1778285947 | 21.11° C | 23% | 1012.2 hPa | 0 mm | - | 130 W/m² | - |
| 1778285643 | 21.11° C | 24% | 1012.5 hPa | 0 mm | - | 141 W/m² | - |
| 1778285340 | 21.11° C | 25% | 1012.5 hPa | 0 mm | - | 148 W/m² | - |
| 1778285038 | 21.11° C | 25% | 1012.5 hPa | 0 mm | - | 150 W/m² | - |
| 1778284734 | 21.11° C | 24% | 1012.3 hPa | 0 mm | - | 141 W/m² | - |
* Rain latest hour (hover to see other rain measurements)
** Current wind speed in m/s (hover to see current wind gust speed)